Wind_Speed
61 59 57 53 50 49 49 49 49 47 45 45 47 45 47 42 43 42 43 46 41 42 42 42 42 45 46 47 39 44 38 30 30 32 40 42 45 47 49 47 49 51 50 52 53 51 50 56 68
66 63 57 54 50 50 56 54 53 53 52 44 45 52 51 47 41 42 48 51 49 49 45 43 42 43 40 41 42 41 42 30 31 36 41 43 45 51 51 47 48 53 55 61 54 52 55 62 73
73 64 61 55 55 63 64 61 58 56 54 47 49 53 50 45 45 44 47 49 51 48 43 49 56 50 50 46 39 40 41 35 34 37 37 45 50 49 49 48 53 55 63 61 54 55 58 69 76
70 70 68 58 62 67 71 60 59 59 57 53 52 55 53 48 45 52 54 52 48 48 44 43 37 37 41 42 39 40 40 39 40 43 41 48 51 51 52 60 57 61 66 63 60 53 64 72 79
85 83 63 58 61 63 75 71 67 66 62 56 56 60 58 54 55 57 56 54 56 56 52 53 49 45 44 43 37 45 47 48 40 41 47 52 55 56 56 56 62 64 66 67 61 59 69 74 84
86 86 77 67 67 73 75 74 74 68 66 64 63 64 63 57 53 59 60 58 61 63 60 57 53 52 51 48 40 42 43 47 45 52 58 58 60 57 60 64 66 65 65 65 58 65 73 81 88
93 91 86 76 72 74 77 77 71 72 70 68 70 69 64 59 55 59 64 59 61 62 63 60 54 51 54 55 51 47 49 54 57 59 62 65 63 62 64 65 66 62 66 56 65 70 80 88 91
102 95 91 79 82 75 76 83 78 74 72 68 73 70 76 65 65 62 58 65 66 64 63 65 65 61 58 53 52 51 62 63 66 63 65 62 63 65 65 65 60 63 59 63 70 77 85 89 90
94 96 95 90 89 92 91 84 76 72 75 75 75 76 78 71 69 69 65 62 64 69 66 70 67 66 66 66 63 65 66 66 67 67 63 63 62 61 62 60 56 57 63 68 76 85 91 88 82
92 84 91 97 92 92 98 96 88 88 77 73 77 85 80 76 71 72 70 69 67 66 67 66 64 62 66 68 66 66 66 68 57 64 68 62 63 60 60 56 57 61 67 75 86 91 88 87 79
100 87 93 95 100 97 97 98 98 99 91 80 69 79 80 76 72 68 71 76 75 69 67 71 69 71 71 70 70 70 68 61 66 75 72 65 59 59 54 52 60 70 77 87 91 90 90 80 74
112 107 98 92 102 105 97 95 98 99 94 89 87 88 84 78 77 73 80 80 80 73 67 71 66 71 69 70 69 64 64 69 71 68 69 62 55 50 51 61 68 78 88 88 90 86 78 72 74
114 115 115 112 104 99 104 106 107 102 101 95 98 94 91 81 85 77 78 78 77 79 76 77 76 75 72 62 64 72 69 69 71 69 65 50 52 54 61 68 80 85 89 89 90 76 69 72 77
110 116 120 118 116 114 111 106 107 95 95 94 100 101 100 90 80 84 82 81 78 78 79 78 75 70 66 63 72 75 72 70 67 67 52 55 61 62 69 78 82 85 87 88 77 70 69 76 78
115 112 113 115 118 117 113 115 110 100 101 92 98 101 103 104 98 96 93 84 82 72 70 63 57 62 70 74 78 71 69 67 64 56 54 57 63 69 78 80 82 81 82 76 70 70 73 79 75
112 116 113 110 113 115 122 112 108 109 110 110 108 109 105 104 101 99 95 94 89 83 78 70 71 75 78 77 76 74 67 58 54 57 71 70 69 74 80 80 82 79 73 69 68 71 74 77 71
109 107 109 108 114 117 125 116 101 103 111 117 114 116 117 115 108 102 99 99 97 95 97 96 92 89 87 81 76 72 62 55 63 70 71 67 74 79 79 77 78 72 71 69 69 72 76 73 67
106 107 108 104 113 120 123 120 107 106 106 113 112 111 113 117 114 109 107 106 104 99 97 93 92 87 81 76 70 68 67 79 81 78 76 77 79 81 79 79 75 68 71 72 68 71 75 69 64
105 106 106 106 113 117 119 112 103 103 107 103 103 109 110 113 114 110 103 100 100 96 93 91 84 81 77 71 72 73 75 78 78 74 77 76 75 78 77 73 68 66 68 68 70 72 72 67 63
106 106 107 108 113 116 116 115 108 107 105 108 109 110 105 102 101 100 98 99 97 94 90 89 88 81 78 81 80 80 83 75 70 75 74 78 77 76 71 69 63 64 68 72 73 74 70 64 61
100 105 109 110 114 116 116 117 110 111 114 115 113 114 111 105 101 101 98 95 93 91 89 85 84 79 78 77 78 81 76 72 75 74 75 76 75 63 61 63 63 65 69 74 76 71 66 61 57
92 98 101 108 114 116 121 113 112 108 109 114 116 119 114 111 110 106 105 102 98 94 88 83 80 79 76 83 84 79 73 73 76 75 75 69 64 63 65 66 66 68 72 77 74 67 60 57 50
90 97 100 102 103 112 114 120 108 112 111 111 111 113 118 121 118 114 110 106 103 95 89 86 86 85 78 77 80 77 78 77 77 73 69 70 69 70 68 70 67 70 76 74 69 63 57 51 48
89 96 98 101 104 107 99 111 103 112 115 113 114 114 115 116 122 119 118 116 112 107 100 95 93 87 83 81 77 78 74 71 70 67 65 68 70 74 70 70 70 76 74 68 63 57 54 47 46
89 91 94 97 100 101 103 113 95 100 107 114 119 114 117 115 115 112 109 109 112 106 101 96 93 89 88 87 81 76 75 72 70 68 72 73 76 75 71 71 77 74 67 63 57 51 48 46 42
85 83 85 90 97 98 99 104 95 96 102 106 107 113 118 118 117 114 108 104 102 100 94 91 91 89 89 84 78 76 74 76 76 76 82 76 79 72 72 75 73 65 62 56 50 45 45 43 43
81 76 79 86 82 88 93 94 90 94 94 100 101 102 102 105 112 112 107 104 101 100 96 87 87 86 89 91 91 90 89 86 83 81 81 81 75 73 71 73 65 60 55 48 42 43 43 43 40
63 67 68 73 75 78 81 80 80 84 85 88 92 91 95 100 98 92 96 101 99 97 95 89 84 83 82 81 82 82 79 77 75 76 74 72 72 73 70 63 59 54 47 42 41 43 43 44 35
49 55 58 61 63 65 66 64 63 70 72 74 80 84 88 86 86 79 78 74 83 90 92 88 85 79 75 76 75 73 72 67 66 66 66 67 67 65 61 57 53 49 43 43 42 43 44 34 29
38 45 47 48 53 54 52 55 53 53 59 60 67 74 72 74 69 72 68 61 71 70 75 79 80 73 74 73 68 66 64 62 63 62 62 59 57 56 54 49 47 44 40 42 43 44 35 31 25
Wind_Direction
241 242 246 245 247 247 249 246 250 251 254 258 260 261 262 262 257 262 270 272 268 263 265 268 269 264 266 269 282 279 279 278 283 295 308 308 308 311 311 309 309 314 307 307 301 297 312 319 320
243 239 240 246 244 246 249 248 249 250 253 257 261 258 261 264 265 267 266 268 272 273 277 286 282 275 272 274 282 293 267 279 288 293 303 305 308 310 306 304 305 309 307 310 300 298 308 311 320
242 241 240 243 246 242 243 246 252 251 257 259 258 257 260 264 270 267 268 268 271 278 287 296 289 280 278 287 289 289 272 273 283 289 301 303 307 306 305 305 309 310 310 308 298 299 308 313 321
234 236 238 238 243 238 245 245 252 256 255 256 256 257 258 261 264 267 269 271 275 272 272 277 286 295 293 294 290 285 269 273 283 294 303 306 309 305 307 307 307 311 310 305 301 301 309 316 319
236 239 245 237 235 246 243 239 243 248 250 247 257 261 259 258 263 265 269 270 274 276 273 275 278 284 286 283 284 289 275 276 284 295 302 308 309 310 308 308 310 309 304 305 296 297 306 313 316
240 242 229 235 241 245 246 247 252 244 246 252 256 258 257 259 261 263 267 270 272 273 276 276 281 286 286 289 285 287 284 284 289 293 297 305 307 306 306 309 310 308 304 304 297 303 308 313 320
237 237 237 238 232 234 246 248 245 244 246 253 252 253 254 257 263 263 265 271 270 272 274 277 280 284 286 285 287 284 287 287 289 288 295 301 303 304 305 309 308 306 305 299 303 306 314 317 321
230 235 237 236 236 238 243 240 241 246 246 247 246 253 254 251 255 257 266 269 268 266 269 274 276 280 286 288 284 278 285 290 294 299 298 301 304 303 305 308 305 305 298 302 306 314 317 321 322
227 232 234 238 237 241 243 244 245 247 245 246 247 254 255 250 256 262 264 263 268 265 267 270 273 275 279 281 282 286 289 293 296 298 299 301 304 307 307 305 303 296 298 299 311 315 320 320 319
230 228 231 232 236 240 243 244 244 245 243 244 248 245 249 249 251 258 258 261 262 263 266 268 273 280 279 279 285 288 293 296 295 299 300 301 305 307 304 302 295 297 302 307 313 317 320 318 315
232 230 231 232 233 235 238 242 243 246 247 244 249 249 247 250 260 257 260 261 257 259 266 274 276 277 277 279 284 286 291 288 294 298 298 303 303 305 301 298 298 301 309 313 316 318 317 314 311
235 235 231 231 234 234 236 237 241 246 248 250 253 255 250 248 259 256 261 255 257 258 264 277 282 279 276 276 281 286 288 287 292 295 300 301 297 298 295 298 302 309 313 315 317 317 314 312 313
239 240 236 236 236 237 241 242 242 246 249 251 253 250 254 255 257 254 258 257 259 265 262 266 272 271 276 278 282 289 287 292 295 298 301 298 296 294 298 301 307 312 313 314 314 314 312 312 316
239 240 238 240 242 242 242 242 243 245 246 248 250 250 250 253 251 253 254 260 258 261 262 261 267 268 264 270 283 288 290 292 291 294 289 294 301 301 302 305 308 311 312 312 313 310 312 317 318
236 238 239 241 245 245 247 247 247 246 243 242 247 248 249 248 248 254 257 258 257 262 267 267 254 252 268 273 278 284 287 287 284 283 290 299 300 302 303 305 306 309 311 312 309 310 313 318 318
238 238 240 242 244 244 247 245 246 248 248 245 245 248 248 248 249 253 253 251 254 256 257 254 251 261 268 272 276 278 278 276 272 284 291 294 296 299 302 306 308 309 309 308 306 311 314 318 317
241 239 240 239 241 243 246 242 244 248 249 249 248 251 250 252 253 254 254 256 257 260 262 262 262 265 263 271 276 276 271 265 272 280 290 289 298 302 303 305 307 306 305 307 306 309 315 316 316
242 242 242 239 242 242 244 244 243 244 243 248 250 252 254 253 252 250 252 256 258 259 261 264 266 266 267 270 270 265 265 275 282 285 286 288 292 297 300 303 304 302 305 307 308 310 315 315 317
244 243 242 242 243 244 245 246 243 243 245 248 251 252 254 255 257 256 254 253 256 257 258 258 261 264 267 267 267 268 271 276 279 280 286 288 293 298 301 302 300 301 304 312 312 313 315 315 316
245 245 244 242 243 244 245 244 242 241 242 245 243 247 249 252 256 258 257 255 254 255 254 257 260 263 273 271 269 269 271 277 274 280 287 293 293 296 300 296 299 304 308 313 314 314 313 315 315
249 248 245 244 245 246 245 245 242 241 242 243 244 246 248 250 251 253 255 258 256 253 253 252 257 260 266 263 263 267 272 268 276 281 286 291 292 297 296 297 300 305 308 311 312 312 312 314 314
249 250 248 248 246 247 247 245 244 243 243 243 244 246 246 246 246 246 249 252 253 254 254 255 257 259 260 260 265 270 266 267 274 280 284 289 291 298 296 300 301 304 308 309 310 311 312 312 312
251 251 250 248 246 247 247 247 241 245 244 245 244 245 246 246 244 245 247 248 249 252 257 260 262 264 263 264 269 270 271 275 278 280 283 286 292 298 298 301 301 303 305 308 308 309 309 309 310
252 252 251 251 250 249 249 250 244 246 244 243 243 243 244 245 245 245 247 248 247 250 251 255 257 261 263 263 265 270 273 273 278 281 285 288 293 296 297 301 301 300 304 306 307 305 306 306 310
255 253 253 254 253 251 249 249 247 244 244 244 244 244 243 243 244 244 246 248 251 250 253 254 254 254 257 259 261 263 267 271 276 279 283 288 292 294 295 297 298 299 302 304 303 303 302 304 308
262 259 259 255 254 254 251 251 249 245 244 243 245 243 241 242 242 244 244 245 248 250 249 250 252 253 252 252 253 257 261 270 274 275 281 288 288 289 292 296 297 298 301 300 301 301 301 304 302
264 261 257 257 257 254 251 251 251 246 244 245 244 244 245 245 245 245 244 244 245 248 249 247 250 252 254 256 259 262 266 270 273 276 282 283 284 287 291 294 294 297 299 299 299 298 301 303 302
261 261 258 258 255 255 253 250 249 248 242 242 242 243 245 244 244 243 244 244 245 247 249 249 248 248 252 255 258 261 264 268 272 276 278 280 282 284 289 290 293 296 295 295 298 300 300 302 295
258 255 254 254 256 256 256 255 250 247 243 238 240 238 239 242 245 246 244 245 244 243 246 248 248 247 250 253 256 260 264 269 272 274 275 277 279 282 286 288 292 292 291 295 297 298 300 294 284
256 253 255 253 251 251 249 250 244 241 239 234 233 234 235 238 237 239 240 243 241 241 245 247 250 249 248 250 256 261 264 266 268 271 274 275 277 282 285 288 289 289 292 294 295 296 293 286 278
Height
10913 10919 10926 10933 10939 10938 10938 10938 10940 10943 10944 10946 10947 10949 10951 10957 10963 10964 10961 10959 10965 10966 10968 10969 10969 10969 10970 10970 10971 10969 10965 10965 10963 10962 10959 10957 10955 10952 10950 10948 10944 10942 10938 10934 10931 10927 10923 10920 10914
10901 10910 10919 10925 10928 10928 10925 10928 10930 10933 10935 10940 10941 10939 10945 10952 10960 10959 10955 10953 10955 10959 10961 10963 10964 10966 10966 10966 10964 10960 10959 10959 10958 10957 10955 10952 10950 10948 10945 10943 10939 10935 10929 10925 10921 10917 10913 10909 10903
10890 10898 10909 10919 10920 10915 10911 10916 10921 10925 10932 10936 10932 10930 10937 10948 10955 10951 10948 10948 10952 10953 10955 10956 10956 10957 10959 10957 10956 10955 10954 10953 10953 10952 10951 10949 10945 10941 10939 10936 10933 10928 10923 10918 10913 10909 10905 10899 10893
10879 10887 10896 10909 10909 10905 10898 10907 10911 10919 10925 10927 10923 10923 10931 10942 10946 10938 10940 10944 10944 10946 10948 10948 10950 10950 10949 10949 10948 10949 10948 10947 10947 10946 10946 10944 10940 10936 10932 10930 10926 10921 10914 10909 10906 10902 10896 10889 10883
10863 10874 10884 10896 10897 10893 10886 10896 10899 10908 10913 10919 10916 10914 10920 10934 10936 10932 10932 10937 10938 10938 10940 10941 10943 10943 10943 10944 10944 10944 10942 10942 10941 10940 10939 10937 10934 10930 10925 10922 10919 10913 10906 10900 10896 10892 10886 10881 10875
10851 10860 10871 10879 10885 10883 10879 10885 10890 10898 10906 10907 10910 10903 10907 10920 10929 10923 10924 10930 10930 10930 10932 10933 10935 10936 10936 10937 10937 10938 10937 10936 10935 10933 10932 10930 10927 10924 10919 10915 10910 10904 10898 10891 10887 10883 10876 10870 10861
10836 10844 10860 10869 10872 10874 10868 10866 10877 10885 10895 10899 10900 10894 10897 10910 10918 10917 10916 10922 10921 10921 10924 10925 10926 10927 10927 10929 10929 10929 10929 10929 10929 10927 10925 10922 10919 10916 10911 10906 10901 10896 10890 10883 10877 10870 10862 10856 10847
10821 10830 10847 10859 10863 10864 10853 10851 10860 10873 10882 10889 10886 10886 10884 10901 10906 10909 10910 10914 10913 10910 10916 10915 10915 10918 10919 10920 10921 10921 10920 10920 10920 10917 10914 10912 10910 10907 10903 10898 10893 10888 10880 10874 10867 10860 10853 10843 10834
10803 10827 10839 10843 10847 10843 10839 10839 10848 10856 10870 10876 10875 10875 10874 10892 10899 10897 10900 10903 10901 10900 10906 10907 10908 10912 10914 10913 10914 10915 10912 10911 10910 10908 10904 10902 10899 10898 10893 10888 10884 10878 10872 10865 10858 10851 10844 10834 10825
10793 10812 10824 10818 10825 10830 10825 10829 10829 10834 10855 10866 10864 10855 10866 10871 10888 10889 10889 10892 10893 10891 10893 10898 10901 10905 10904 10902 10904 10904 10903 10902 10899 10897 10895 10893 10890 10888 10883 10879 10874 10869 10864 10855 10849 10841 10833 10824 10815
10778 10802 10797 10802 10806 10808 10808 10819 10813 10821 10845 10857 10851 10840 10857 10864 10872 10882 10879 10878 10885 10883 10883 10885 10895 10893 10892 10894 10896 10896 10895 10893 10890 10888 10886 10883 10879 10878 10874 10869 10865 10860 10853 10845 10838 10830 10822 10813 10804
10763 10774 10780 10783 10786 10787 10802 10799 10807 10809 10830 10841 10842 10834 10844 10857 10861 10867 10861 10863 10862 10890 10891 10883 10871 10878 10884 10884 10886 10888 10887 10885 10883 10880 10877 10873 10869 10869 10867 10860 10854 10848 10842 10835 10827 10820 10811 10803 10794
10747 10748 10759 10765 10768 10776 10778 10787 10791 10801 10812 10825 10820 10821 10827 10840 10846 10849 10850 10855 10857 10867 10879 10882 10872 10869 10872 10875 10875 10877 10878 10876 10872 10870 10869 10864 10860 10861 10860 10854 10844 10836 10830 10824 10819 10809 10802 10793 10783
10719 10727 10739 10746 10753 10758 10757 10762 10762 10794 10795 10804 10800 10806 10816 10821 10832 10830 10845 10844 10844 10847 10856 10863 10864 10860 10863 10868 10867 10868 10867 10866 10862 10861 10860 10855 10851 10850 10846 10843 10839 10828 10819 10813 10807 10799 10790 10781 10772
10701 10714 10720 10729 10732 10739 10727 10734 10754 10767 10770 10786 10777 10783 10795 10806 10817 10821 10831 10836 10835 10837 10839 10842 10846 10850 10851 10856 10861 10862 10861 10857 10854 10853 10850 10846 10842 10838 10835 10831 10828 10824 10812 10805 10795 10788 10781 10771 10762
10680 10692 10704 10710 10709 10717 10686 10723 10743 10742 10749 10763 10764 10762 10776 10786 10801 10807 10815 10819 10823 10827 10830 10834 10838 10843 10844 10845 10850 10858 10856 10853 10848 10846 10841 10837 10833 10829 10825 10821 10815 10810 10806 10798 10788 10779 10772 10764 10753
10654 10672 10677 10689 10682 10678 10661 10703 10727 10719 10727 10737 10748 10749 10758 10763 10782 10793 10797 10801 10808 10812 10813 10815 10825 10835 10839 10835 10837 10840 10843 10839 10838 10839 10839 10832 10825 10817 10818 10813 10807 10799 10792 10790 10781 10771 10763 10754 10745
10632 10647 10655 10675 10652 10646 10648 10680 10715 10706 10710 10721 10730 10733 10738 10744 10759 10777 10784 10786 10789 10796 10799 10801 10808 10815 10820 10823 10826 10826 10829 10825 10825 10825 10822 10826 10820 10813 10807 10804 10798 10790 10781 10775 10769 10761 10754 10744 10736
10609 10621 10632 10642 10629 10625 10639 10664 10695 10690 10691 10705 10713 10717 10723 10728 10735 10750 10764 10769 10774 10780 10786 10788 10794 10802 10809 10810 10812 10814 10817 10816 10815 10813 10812 10812 10811 10802 10797 10793 10787 10783 10773 10765 10756 10748 10741 10733 10725
10584 10595 10604 10610 10601 10600 10616 10635 10662 10671 10677 10679 10687 10693 10704 10714 10717 10724 10736 10748 10757 10766 10774 10778 10787 10791 10793 10792 10798 10801 10804 10808 10801 10802 10801 10797 10796 10793 10786 10780 10776 10769 10763 10755 10745 10738 10730 10722 10715
10560 10568 10574 10580 10576 10583 10594 10605 10636 10652 10655 10657 10666 10672 10685 10698 10706 10709 10713 10720 10731 10746 10757 10769 10777 10783 10780 10775 10781 10788 10797 10796 10791 10792 10793 10787 10783 10783 10776 10769 10763 10757 10750 10743 10735 10729 10721 10714 10705
10542 10536 10545 10553 10557 10565 10556 10591 10606 10626 10633 10637 10646 10648 10663 10673 10681 10687 10692 10698 10706 10719 10736 10751 10762 10769 10770 10761 10767 10777 10781 10783 10780 10785 10787 10775 10771 10770 10765 10760 10751 10746 10739 10732 10724 10719 10711 10705 10699
10517 10509 10516 10522 10529 10527 10541 10547 10594 10591 10606 10614 10625 10630 10634 10645 10654 10669 10679 10687 10691 10703 10720 10733 10743 10752 10758 10755 10755 10760 10765 10767 10766 10772 10775 10763 10763 10758 10752 10746 10741 10735 10728 10721 10715 10707 10702 10697 10691
10488 10485 10492 10496 10502 10504 10533 10514 10564 10566 10572 10583 10589 10597 10606 10616 10623 10641 10652 10661 10674 10688 10705 10718 10728 10739 10744 10744 10742 10744 10751 10754 10756 10757 10754 10751 10749 10746 10740 10734 10730 10724 10718 10711 10705 10698 10692 10688 10683
10461 10466 10468 10471 10472 10487 10493 10473 10531 10537 10537 10547 10553 10573 10578 10588 10594 10614 10633 10647 10653 10674 10687 10699 10708 10722 10729 10732 10731 10732 10736 10741 10746 10743 10739 10739 10735 10732 10728 10723 10718 10711 10707 10702 10695 10690 10684 10679 10675
10436 10444 10444 10444 10445 10455 10462 10462 10498 10511 10505 10506 10524 10536 10543 10555 10568 10589 10612 10627 10637 10647 10666 10676 10690 10701 10710 10716 10720 10721 10724 10729 10734 10728 10728 10727 10724 10720 10716 10711 10706 10701 10696 10691 10686 10680 10676 10672 10666
10412 10415 10414 10410 10426 10425 10429 10442 10460 10468 10485 10487 10504 10515 10527 10543 10562 10580 10593 10606 10621 10629 10641 10665 10670 10681 10691 10696 10702 10708 10713 10720 10720 10717 10715 10715 10711 10708 10705 10699 10694 10690 10685 10680 10677 10673 10667 10662 10658
10391 10388 10391 10388 10393 10397 10403 10416 10427 10435 10456 10466 10476 10496 10509 10516 10528 10554 10576 10592 10605 10617 10627 10643 10658 10667 10675 10682 10687 10694 10699 10708 10706 10705 10703 10701 10699 10695 10693 10689 10684 10678 10675 10671 10668 10663 10659 10654 10649
10371 10366 10368 10371 10373 10377 10386 10395 10405 10411 10428 10448 10458 10471 10481 10499 10518 10548 10559 10581 10592 10599 10615 10627 10637 10656 10665 10668 10675 10681 10688 10693 10692 10692 10691 10689 10686 10684 10681 10677 10673 10669 10665 10662 10659 10655 10651 10645 10641
10353 10350 10351 10355 10356 10359 10369 10373 10384 10394 10404 10423 10436 10449 10473 10486 10510 10521 10543 10561 10571 10589 10603 10616 10629 10643 10649 10659 10665 10671 10676 10678 10679 10679 10678 10676 10674 10673 10669 10667 10663 10659 10657 10653 10649 10644 10640 10637 10634